Pulkovo current weather conditions

sailwx.info

Wind from 300 at 3 knots

Air temperature 3.0° C
Visibility: greater than 4.3 NM
Dewpoint 2.0° C
Present weather: Light drizzle.

Last reported at 2014-Oct-31 19:30 UTC.
Time now 2014-Oct-31 22:19 UTC

Location: N 59°48' E 030°16'.
View on Google Maps.

See reports from other nearby stations

  
Tides and Currents Weather Stations Pressure Air Temp Water Temp Dewpoint Dewpoint Depression Visibility Wind Speed Wind Dir Waves Ship Positions
date/time (UTC)wind fromknots sea level pressurealtimeterstation pressurevisibilityair tempwater tempwave heightnotes
2014-Oct-31 19:30 300 3 4.3 3.0 Light drizzle.
2014-Oct-31 19:00 280 3 4.3 3.0 Light drizzle.
2014-Oct-31 18:30 270 3 3.2 3.0 Light drizzle.
2014-Oct-31 18:00 250 5 4.3 2.0 Light drizzle.
2014-Oct-31 17:30 280 5 3.8 2.0 Light drizzle.
2014-Oct-31 17:00 290 9 5.4 3.0
2014-Oct-31 16:30 310 9 5.4 2.0
2014-Oct-31 16:00 310 11 5.4 2.0
2014-Oct-31 15:30 320 9 5.4 3.0
2014-Oct-31 15:00 320 9 5.4 3.0
2014-Oct-31 14:30 320 7 5.4 4.0
2014-Oct-31 14:00 300 9 5.4 4.0
2014-Oct-31 13:30 300 11 5.4 5.0
2014-Oct-31 13:00 290 11 5.4 5.0
2014-Oct-31 12:30 300 9 5.4 6.0
2014-Oct-31 12:00 300 11 5.4 6.0
2014-Oct-31 11:30 310 13 5.4 5.0
2014-Oct-31 11:00 300 11 5.4 5.0
2014-Oct-31 10:30 300 9 5.4 5.0
2014-Oct-31 10:00 290 9 5.4 5.0
2014-Oct-31 09:30 300 7 5.4 5.0
2014-Oct-31 09:00 300 7 5.4 5.0
2014-Oct-31 08:30 320 7 5.4 5.0
2014-Oct-31 08:00 270 9 5.4 5.0
2014-Oct-31 07:30 270 7 5.4 5.0
2014-Oct-31 07:00 260 7 5.4 5.0
2014-Oct-31 06:30 240 9 5.4 5.0
2014-Oct-31 06:00 240 9 5.4 5.0
2014-Oct-31 05:30 250 7 5.4 4.0
2014-Oct-31 05:00 250 7 5.4 5.0
2014-Oct-31 04:30 250 7 5.4 5.0
2014-Oct-31 04:00 240 9 5.4 5.0
2014-Oct-31 03:30 240 11 5.4 5.0
2014-Oct-31 03:00 240 11 5.4 4.0
2014-Oct-31 02:30 240 9 5.4 4.0
2014-Oct-31 02:00 240 7 5.4 3.0
2014-Oct-31 01:30 240 7 5.4 3.0
2014-Oct-31 01:00 250 7 5.4 3.0
2014-Oct-31 00:30 240 7 5.4 4.0
2014-Oct-31 00:00 240 9 5.4 4.0
2014-Oct-30 23:30 240 9 5.4 4.0
2014-Oct-30 23:00 230 11 5.4 4.0
2014-Oct-30 22:30 240 11 5.4 4.0
2014-Oct-30 22:00 230 9 4.0
2014-Oct-30 21:30 230 9 3.2 4.0
2014-Oct-30 21:00 240 11 3.2 4.0
2014-Oct-30 20:30 240 9 3.2 4.0
2014-Oct-30 20:00 250 7 2.7 3.0 Mist.
2014-Oct-30 19:30 260 5 5.4 3.0
2014-Oct-30 19:00 240 9 5.4 5.0
2014-Oct-30 18:30 240 9 5.4 5.0
2014-Oct-30 18:00 270 5 5.4 3.0
2014-Oct-30 17:30 250 9 5.4 5.0
2014-Oct-30 17:00 230 5 5.4 4.0
2014-Oct-30 16:30 250 3 5.4 2.0
2014-Oct-30 16:00 250 3 5.4 3.0
2014-Oct-30 15:30 230 5 5.4 4.0
2014-Oct-30 15:00 220 5 5.4 5.0
2014-Oct-30 14:30 240 7 5.0
2014-Oct-30 14:00 240 5 7.0
2014-Oct-30 13:30 230 7 8.0
2014-Oct-30 13:00 240 7 8.0
2014-Oct-30 12:30 240 5 8.0
2014-Oct-30 12:00 240 5 8.0
2014-Oct-30 11:30 250 5 8.0
2014-Oct-30 11:00 230 5 8.0
2014-Oct-30 10:30 240 5 5.4 7.0
2014-Oct-30 10:00 240 5 5.4 8.0
2014-Oct-30 09:30 250 5 5.4 7.0
2014-Oct-30 09:00 270 3 5.4 7.0
2014-Oct-30 08:30 260 5 5.4 7.0
2014-Oct-30 08:00 250 7 5.4 7.0
2014-Oct-30 07:30 230 7 5.4 7.0
2014-Oct-30 07:00 220 5 5.4 7.0
2014-Oct-30 06:30 240 5 5.4 7.0
2014-Oct-30 06:00 220 5 5.4 6.0
2014-Oct-30 05:30 230 5 5.4 6.0
2014-Oct-30 05:00 230 7 6.0
2014-Oct-30 04:30 230 5 5.4 6.0
2014-Oct-30 04:00 240 5 5.4 6.0
2014-Oct-30 03:30 240 5 5.4 7.0
2014-Oct-30 03:00 240 7 5.4 7.0
2014-Oct-30 02:30 260 5 5.4 7.0
2014-Oct-30 02:00 270 5 5.4 8.0
2014-Oct-30 01:30 240 11 5.4 8.0
2014-Oct-30 01:00 240 13 5.4 9.0
2014-Oct-30 00:30 230 11 5.4 9.0
2014-Oct-30 00:00 220 9 5.4 8.0
2014-Oct-29 23:30 220 9 5.4 8.0
2014-Oct-29 23:00 220 9 5.4 9.0
2014-Oct-29 22:30 220 11 5.4 9.0
2014-Oct-29 22:00 220 13 5.4 9.0